GFSNW_sfc_rhum_114.txt.gz
RH
68 70 74 74 75 73 80 91 95 69 75 94 97 93 49 50 50 48 56 67 80 93 93 86 94 94 98 70 77 86 76 98 94 95 85 67 84 75 70 86 91 93 98 99
68 72 74 76 77 77 92 93 79 70 76 93 94 64 53 50 51 54 60 68 76 79 97 96 96 90 70 68 68 77 80 99 92 96 94 82 78 72 61 94 99 99 98 99
68 71 73 75 77 77 88 97 95 83 83 78 68 69 62 60 47 49 50 59 72 83 94 95 90 95 71 66 69 75 82 82 92 95 89 94 99 70 71 90 98 94 97 98
66 68 71 74 76 79 91 95 92 74 92 87 63 64 63 56 54 47 52 70 68 78 88 86 95 88 74 72 65 72 82 93 98 93 96 94 100 100 99 99 98 93 98 93
65 69 70 73 77 80 94 91 88 68 60 65 59 72 68 50 47 57 59 63 63 67 74 77 85 78 81 88 72 80 71 93 100 99 96 87 97 94 95 98 97 95 87 96
68 66 70 73 78 82 98 93 83 74 71 56 71 84 58 53 58 48 43 60 62 69 63 59 59 61 66 68 79 80 76 81 94 96 98 84 85 97 93 91 93 92 97 98
66 65 70 75 78 83 98 96 95 86 87 71 53 47 44 48 52 64 57 57 62 54 54 63 63 65 65 67 67 67 70 75 75 96 88 87 100 92 74 86 94 89 93 93
66 67 73 75 76 75 92 96 93 94 93 76 63 63 65 57 58 58 61 55 52 64 72 83 72 70 63 64 60 58 63 77 84 96 90 95 73 81 89 85 96 97 92 96
74 76 73 74 76 73 94 96 96 92 91 89 68 68 64 76 82 76 68 59 64 72 88 92 82 88 70 75 67 56 61 68 87 93 85 96 93 79 68 70 93 98 90 90
76 74 74 76 77 77 91 94 90 91 96 88 78 82 78 69 80 85 80 75 78 78 95 93 94 86 70 92 87 86 86 91 92 92 90 90 88 78 68 82 99 99 90 84
76 77 77 80 79 80 90 96 92 92 96 88 84 78 83 83 85 96 82 82 83 94 95 95 95 98 85 93 77 83 91 98 92 86 84 89 92 72 91 99 99 96 90 86
78 79 80 81 80 80 84 97 94 89 93 84 86 74 70 71 70 86 86 86 88 94 94 87 88 97 95 87 99 77 95 89 91 93 94 96 96 98 96 90 88 78 75 76
80 78 76 77 77 81 86 99 98 96 97 91 90 78 68 67 70 70 88 93 78 80 84 93 95 92 92 95 98 91 82 77 94 93 98 94 94 88 72 69 74 68 65 65
79 79 79 79 78 79 85 97 98 96 90 97 80 56 67 60 62 69 70 72 70 73 86 89 81 91 80 87 83 94 86 81 93 96 94 92 92 89 75 70 62 58 58 62
80 78 73 74 75 78 93 98 96 94 96 96 94 78 58 55 57 60 66 70 75 85 83 92 87 89 84 88 88 98 84 94 98 99 92 91 96 80 69 68 68 63 62 63
79 76 70 69 73 81 97 97 95 96 96 90 95 86 76 62 65 65 70 74 80 85 86 86 83 74 81 90 90 86 77 83 88 96 90 91 88 77 64 66 61 58 61 61
78 76 71 69 75 96 95 94 99 92 92 96 96 87 71 61 55 72 77 76 81 83 92 88 82 82 86 98 99 94 82 82 85 82 83 88 84 87 64 58 58 60 61 66
78 76 72 76 80 80 89 94 91 91 96 95 97 95 89 71 86 87 88 89 91 83 89 90 83 85 92 96 92 78 77 81 81 79 74 73 62 59 58 58 61 70 72 71
76 73 80 91 96 97 92 81 91 97 96 95 97 94 97 81 86 92 80 87 87 85 89 90 84 95 94 91 91 85 73 78 80 71 68 65 68 70 67 67 69 75 78 77
76 88 95 99 96 81 90 97 100 96 99 97 98 92 93 84 94 93 81 91 96 96 90 88 96 98 83 80 75 77 76 75 72 81 82 70 73 75 76 79 78 79 80 76
95 99 99 93 84 97 99 99 99 95 98 97 82 93 96 88 92 94 92 97 97 95 88 92 97 98 84 69 67 67 68 69 71 72 68 66 69 78 79 79 75 75 76 86
89 92 94 96 98 100 99 98 96 95 95 97 98 94 90 95 91 92 90 93 94 95 94 95 98 97 73 66 70 68 66 66 70 69 72 74 72 74 77 78 82 85 86 93
94 98 100 95 99 98 96 97 96 100 97 96 96 96 92 95 94 95 88 86 97 95 94 94 95 90 74 72 71 76 74 75 77 78 75 75 78 76 76 86 89 90 93 98
97 97 98 94 97 92 94 93 93 91 96 95 97 99 93 97 97 95 82 87 89 89 93 91 98 85 81 75 73 78 89 89 88 92 92 95 95 97 96 95 94 92 94 98
98 97 98 97 94 96 94 98 100 99 95 93 94 96 93 96 87 82 81 94 93 93 90 96 94 90 88 89 88 92 94 94 95 95 95 96 96 96 100 99 97 95 99 100
98 91 98 98 98 87 87 98 99 100 96 97 93 94 89 85 88 88 76 72 91 90 99 100 93 90 89 92 91 93 94 93 95 95 94 96 97 96 96 98 98 99 96 97
90 94 99 99 98 98 99 100 99 100 94 95 97 94 86 93 97 88 70 93 96 98 99 98 92 91 94 94 94 95 94 95 94 96 95 95 95 97 96 97 96 95 94 95

GFSNW_sfc_rhum_117.txt.gz
RH
79 78 75 77 79 78 76 90 94 74 79 94 97 91 61 51 51 51 60 68 79 93 93 81 85 92 82 65 67 82 82 99 98 88 79 76 86 71 67 80 79 93 95 99
74 76 78 79 79 76 92 89 79 73 75 95 94 65 56 51 53 56 60 69 78 84 98 96 94 86 68 68 71 82 79 98 93 81 84 67 80 78 88 87 96 98 98 99
73 78 78 81 79 77 86 95 94 81 83 81 68 66 64 58 49 51 55 60 73 84 91 94 94 94 70 64 72 74 85 99 99 96 99 98 99 72 82 80 94 97 97 97
75 76 77 78 79 78 82 95 89 76 95 89 67 68 63 57 54 48 57 71 70 80 90 87 99 86 73 67 68 75 87 99 98 96 100 88 99 91 99 93 96 94 98 94
71 74 76 78 80 78 90 95 83 65 74 64 62 70 68 52 50 58 61 62 62 72 72 73 79 83 76 88 78 81 73 98 100 98 80 78 96 97 99 94 87 93 78 92
72 72 74 78 79 77 95 96 84 70 74 61 68 84 61 52 59 57 56 64 68 70 65 62 59 60 64 66 78 90 81 83 94 97 89 85 84 98 96 92 95 89 84 92
68 69 75 78 79 84 94 97 90 79 88 68 57 60 49 58 60 66 59 63 70 59 58 69 70 76 76 76 71 76 85 83 79 97 90 88 99 91 90 90 94 93 88 92
68 71 77 78 79 79 93 98 89 88 94 80 69 66 64 63 65 62 65 60 55 66 79 84 71 72 67 65 61 62 69 85 98 96 90 96 86 84 91 88 98 96 95 94
75 75 77 79 78 79 93 98 94 86 86 89 76 69 70 78 85 75 71 65 69 76 85 88 84 94 80 86 76 61 68 70 90 94 83 94 94 85 88 75 92 93 86 89
79 75 76 79 78 79 88 97 92 85 95 87 78 81 76 75 83 86 82 77 82 80 95 94 97 91 77 97 91 95 86 88 92 90 93 88 88 94 96 90 95 98 86 82
77 76 79 81 82 80 88 98 95 86 94 82 86 81 80 84 87 94 78 80 85 95 94 93 94 97 93 97 86 94 89 93 92 87 83 90 92 75 85 97 95 98 95 84
80 79 83 85 84 82 85 98 95 87 88 74 90 80 71 75 71 89 83 83 91 94 93 87 92 98 97 92 100 81 93 86 90 92 93 95 95 96 96 85 82 80 86 80
81 81 80 80 82 80 87 98 98 94 94 85 85 80 75 71 74 72 86 92 84 80 86 95 97 88 94 99 100 91 89 77 94 93 98 94 93 80 71 73 78 75 73 70
80 82 83 85 82 79 83 97 98 95 96 95 83 63 72 67 72 75 75 74 75 79 89 90 90 91 84 94 90 95 93 85 95 96 95 93 91 79 76 70 65 65 66 72
81 78 80 80 82 84 92 98 98 96 90 95 91 73 68 60 63 68 76 75 80 88 83 92 86 91 88 93 88 93 84 96 99 98 91 92 95 78 70 73 75 71 69 71
80 77 75 78 82 84 93 95 92 96 95 94 94 87 76 65 66 67 74 79 87 89 88 88 87 80 84 96 92 88 80 85 88 97 91 91 87 77 70 72 68 65 69 69
80 77 74 74 83 95 94 92 98 92 94 96 95 88 73 64 61 73 80 82 88 85 93 92 86 84 88 98 98 93 87 86 86 82 80 88 78 83 66 64 67 70 73 71
80 77 73 76 76 78 91 95 89 95 96 95 97 94 88 72 87 86 92 90 93 86 90 92 89 87 93 96 93 83 83 82 82 80 75 79 66 63 66 65 67 70 72 74
77 79 78 88 93 96 94 84 88 96 95 96 98 94 98 85 90 94 90 93 93 88 92 91 87 96 93 88 93 90 85 82 81 64 62 65 69 73 72 71 71 75 77 76
80 87 93 98 98 78 88 94 98 98 98 93 97 94 91 85 95 95 90 95 97 96 91 89 96 97 89 82 75 73 85 82 78 72 75 73 75 75 74 76 77 77 77 76
94 98 100 96 84 97 99 98 99 99 98 97 83 92 96 90 92 94 93 97 98 93 90 92 97 96 92 79 78 83 82 79 77 73 65 65 70 80 80 78 75 75 78 88
89 95 94 98 99 100 97 95 95 92 91 97 97 96 94 96 92 93 96 94 95 95 96 95 98 96 84 79 73 72 73 73 74 70 72 75 72 75 75 77 82 87 88 90
97 99 99 98 100 99 97 98 90 97 98 98 98 99 91 97 94 96 92 88 96 96 97 97 92 92 80 78 73 76 78 77 77 78 75 75 78 74 76 86 88 89 94 97
98 97 98 95 97 96 94 96 94 94 97 97 97 97 95 98 97 98 88 90 92 93 97 92 97 88 86 79 72 76 87 89 86 89 90 93 94 97 97 96 96 94 97 100
98 98 93 96 94 97 97 98 97 98 97 95 95 95 94 96 93 91 88 90 97 90 91 93 98 89 85 89 90 93 94 94 94 96 96 96 97 95 99 99 96 91 97 98
96 94 98 97 100 97 97 99 98 99 97 97 93 94 90 89 90 88 84 86 89 88 97 98 96 91 90 92 92 93 92 92 94 95 94 95 95 93 93 98 98 100 96 100
91 95 99 100 98 99 99 100 99 99 93 94 96 91 88 91 96 95 87 90 92 97 97 99 96 90 93 95 94 94 94 95 95 96 95 96 95 96 94 96 98 97 96 97

GFSNW_sfc_rhum_123.txt.gz
RH
90 89 87 86 84 82 82 96 98 82 82 93 85 72 50 56 51 52 60 65 70 81 89 84 83 78 77 54 62 74 70 100 94 78 54 56 68 70 63 79 70 78 92 96
87 88 87 85 84 85 96 95 93 80 75 94 89 61 55 50 54 52 57 71 71 80 94 83 91 80 62 61 62 75 88 91 82 59 63 52 78 79 91 70 77 94 95 95
88 89 89 87 85 82 84 95 98 82 81 77 69 64 58 55 47 52 53 68 76 76 88 91 90 84 63 63 59 65 89 87 80 89 96 92 92 81 70 82 86 91 94 93
88 88 86 80 83 78 79 93 90 78 95 80 69 64 55 54 51 47 56 72 58 70 84 80 96 84 65 57 64 64 88 99 100 96 96 88 96 94 89 89 97 92 95 91
82 81 82 83 81 76 77 97 78 73 71 69 67 68 53 48 49 56 55 54 56 67 60 52 62 66 67 70 66 71 79 93 100 97 98 89 96 96 96 85 84 92 90 92
81 82 81 81 80 75 85 86 70 67 66 62 67 74 60 53 63 60 49 56 59 62 60 57 51 52 54 55 65 77 87 97 89 90 92 81 78 97 95 86 83 85 85 92
78 79 80 79 78 80 85 88 69 75 76 56 58 56 47 55 54 63 56 59 56 54 63 69 74 73 69 69 68 66 81 91 91 86 96 89 97 98 92 90 92 82 82 87
77 78 79 80 78 81 86 90 72 72 88 61 61 58 64 63 62 63 60 54 56 70 66 68 64 66 71 73 75 69 75 88 93 88 82 92 94 86 91 92 92 85 89 88
79 78 79 80 80 78 88 95 90 75 66 75 57 65 60 64 65 60 64 63 71 66 66 70 74 73 75 76 63 61 74 81 97 80 78 86 88 77 74 78 86 80 73 82
76 78 80 80 81 78 85 94 92 80 95 81 66 65 69 71 69 66 68 75 75 67 77 81 78 81 77 78 74 77 70 76 93 85 83 83 80 84 79 91 91 78 74 72
77 78 81 84 80 80 84 94 91 79 95 80 77 67 78 76 66 65 66 74 78 83 80 74 80 86 85 87 78 82 76 83 86 91 88 89 80 92 83 93 90 79 76 70
78 82 82 85 82 80 81 92 89 78 84 81 85 75 70 63 59 80 86 76 87 79 80 78 79 89 91 81 95 73 81 72 76 82 85 90 89 88 76 74 80 82 73 69
79 82 84 84 82 80 81 96 94 86 92 83 78 81 74 67 69 67 79 88 80 78 76 90 89 87 77 92 93 80 84 72 80 85 91 86 79 70 70 77 85 75 66 64
84 86 89 86 81 79 81 96 97 91 90 94 84 64 73 70 68 70 72 78 76 78 73 82 78 82 77 83 78 79 80 75 84 91 91 81 76 68 72 73 67 66 65 65
85 87 86 82 81 82 88 98 97 89 80 92 86 74 69 71 73 76 74 74 75 70 68 79 79 79 76 84 78 84 74 83 86 88 88 78 81 68 66 67 70 66 64 65
85 86 84 82 77 71 88 97 90 93 92 87 92 82 74 66 73 73 76 76 79 75 70 75 73 74 73 86 85 82 76 80 83 89 81 86 82 71 64 67 65 61 62 61
87 84 80 81 84 95 94 92 89 90 88 91 91 89 74 66 67 77 75 79 80 71 80 77 73 77 74 89 90 79 79 86 84 76 72 76 66 68 62 61 63 65 62 60
85 83 81 81 79 85 94 97 90 87 92 87 90 94 86 69 79 82 83 79 77 79 79 84 78 78 83 88 82 81 80 80 76 74 72 65 63 62 65 63 62 65 66 65
80 75 72 84 92 97 98 86 83 95 87 92 90 92 99 80 88 86 83 79 87 77 86 79 77 80 88 75 82 83 77 77 78 70 68 66 64 65 64 62 62 65 70 66
71 82 87 95 93 82 84 88 90 93 95 92 91 86 95 85 88 87 85 89 88 86 82 80 88 86 77 80 73 74 74 69 65 73 75 68 68 67 65 64 62 64 68 70
90 99 97 93 83 92 94 98 94 94 94 88 88 82 94 85 89 87 86 90 91 86 83 84 88 88 82 78 80 76 71 64 61 58 59 59 61 64 66 68 67 68 70 76
85 92 94 99 93 97 86 91 97 88 81 87 91 88 87 94 86 85 93 90 88 87 86 87 87 82 74 82 80 80 72 65 64 60 62 63 62 63 64 67 70 72 74 84
95 93 100 95 97 92 93 93 88 87 94 96 96 97 96 92 86 93 86 90 97 86 91 88 84 73 74 79 78 80 78 72 65 66 64 65 68 66 68 76 77 81 82 83
94 92 99 90 99 91 92 89 91 92 93 96 95 97 91 94 94 95 87 86 85 92 93 84 79 82 86 80 77 78 85 87 82 82 83 87 88 92 92 92 90 89 90 93
97 90 98 90 91 95 94 93 95 97 92 93 92 90 85 92 94 89 88 95 95 86 84 83 81 88 89 89 89 92 92 94 93 91 92 93 93 92 96 95 92 90 94 94
91 91 96 97 98 99 99 98 100 96 92 90 86 86 90 89 87 85 87 85 87 82 87 83 90 92 92 92 91 92 93 92 93 92 91 92 92 91 91 94 90 91 89 88
85 97 97 98 98 98 100 100 100 94 91 93 85 85 80 83 89 88 82 88 84 84 89 91 95 93 93 93 92 94 93 93 93 92 92 91 90 91 86 86 85 82 80 85

GFSNW_sfc_rhum_126.txt.gz
RH
90 89 87 85 79 79 81 97 99 96 74 90 70 53 32 47 43 40 45 43 53 78 72 67 76 60 61 44 46 54 57 90 89 58 38 46 48 57 45 65 58 53 90 97
90 87 85 80 79 73 96 99 99 94 86 95 80 43 42 37 39 39 42 50 62 65 100 99 100 60 47 46 48 56 70 87 56 45 55 36 47 66 69 71 68 92 96 96
86 88 86 87 90 85 94 98 99 99 98 82 51 49 50 50 36 41 44 56 62 68 94 91 98 63 46 49 47 59 77 64 77 77 86 66 73 62 53 66 96 95 91 97
86 86 84 88 89 87 94 97 88 72 97 83 61 51 43 48 45 40 42 62 50 63 82 72 86 59 48 49 62 58 71 93 93 75 82 73 99 93 86 87 95 91 96 88
88 86 87 89 92 83 69 97 90 68 62 59 56 56 44 38 43 44 50 45 44 47 38 40 57 54 54 58 52 59 67 82 99 100 90 78 98 99 100 85 81 84 76 89
87 86 87 91 87 73 73 65 61 51 63 58 49 51 43 40 43 44 32 39 46 46 38 36 35 35 40 47 54 62 69 76 73 93 96 81 88 98 99 81 72 68 69 84
83 85 87 86 83 81 83 72 50 51 60 41 38 40 36 42 41 48 46 43 38 47 45 53 59 55 51 52 52 52 60 64 69 78 91 91 100 96 84 82 81 67 76 83
81 80 80 79 80 80 68 64 50 42 62 37 39 38 39 45 45 47 49 46 47 51 46 58 56 59 62 58 53 55 54 66 77 80 70 89 90 73 88 92 85 70 75 78
80 81 80 81 79 80 61 66 65 39 45 42 33 45 41 45 47 52 60 56 58 51 37 55 48 54 43 60 59 52 54 61 87 68 74 82 74 69 72 64 79 63 63 72
79 80 81 82 79 75 58 66 76 49 75 56 41 40 45 41 39 42 51 56 59 54 51 63 53 54 51 57 50 61 56 59 79 71 74 70 63 69 69 90 94 64 55 59
79 81 84 82 81 77 61 74 69 50 70 68 55 52 54 52 38 46 59 59 62 63 58 50 57 60 59 62 54 58 54 66 73 73 80 83 69 82 79 85 67 59 55 56
81 82 85 83 82 80 70 63 58 52 55 65 64 65 60 45 43 52 61 58 60 52 54 53 54 70 72 53 84 54 67 57 58 76 81 78 74 81 65 58 66 60 58 54
83 84 85 83 81 78 71 70 59 49 71 57 49 64 58 51 56 56 54 68 62 63 60 68 68 66 49 70 60 66 66 55 67 75 84 74 70 64 63 62 65 56 52 51
87 89 87 84 80 79 74 73 75 62 56 80 74 54 62 57 53 57 55 63 62 60 50 57 58 62 60 59 58 54 56 57 76 88 81 71 62 62 70 67 58 54 52 52
88 88 85 82 80 77 68 81 67 61 51 76 73 60 60 57 55 56 53 53 52 47 49 62 64 54 55 60 60 62 53 67 79 91 83 69 74 61 60 62 60 55 54 53
89 87 84 77 72 66 55 98 67 65 68 64 76 66 61 59 54 56 58 55 55 46 45 51 51 63 58 69 62 64 57 59 63 79 65 73 70 60 54 56 53 49 49 46
88 83 81 82 83 76 74 82 80 80 64 76 80 70 62 54 54 56 55 57 54 46 46 46 45 58 55 78 70 69 60 62 66 64 65 73 60 62 52 49 49 50 45 44
88 88 85 84 83 79 75 81 80 70 67 58 76 89 70 56 57 67 58 56 51 53 53 58 47 59 61 70 61 56 57 62 64 60 56 55 51 48 49 49 48 49 48 47
80 75 73 69 79 83 80 84 76 75 68 77 87 78 91 59 69 66 65 53 80 56 68 56 56 57 73 53 55 57 58 61 61 55 51 52 53 51 52 50 50 50 52 50
69 62 74 100 90 82 75 70 78 78 77 69 79 66 91 63 69 71 70 69 68 73 65 59 73 68 62 57 48 50 55 52 56 61 62 56 54 53 52 51 50 51 51 52
73 96 96 91 83 71 78 99 89 82 80 68 70 64 83 64 79 77 67 75 74 76 72 75 71 63 62 62 56 52 51 52 50 47 49 48 49 52 53 53 53 54 55 60
73 87 93 84 78 84 89 86 83 70 66 70 77 72 67 82 70 67 75 81 81 72 72 86 80 67 58 60 61 57 54 52 51 49 51 52 50 51 51 53 56 59 60 76
82 79 97 93 94 90 87 91 80 82 86 83 84 94 85 80 71 92 75 96 94 71 91 76 66 59 58 63 61 60 55 55 53 52 52 51 53 52 54 60 64 74 76 79
86 92 95 91 94 82 80 71 80 89 85 85 86 93 80 85 92 100 96 92 80 92 82 67 66 77 73 67 65 65 78 79 73 71 72 78 76 80 82 86 85 87 86 82
92 82 90 88 88 91 94 95 92 88 78 84 86 80 71 93 99 86 86 96 83 70 70 74 78 94 82 86 84 96 96 91 89 88 88 90 90 89 90 88 84 82 84 79
79 84 92 95 93 99 100 100 100 85 82 76 68 78 90 90 80 82 81 65 62 76 81 77 77 93 89 93 93 95 93 91 89 88 86 87 89 87 85 86 85 84 81 81
79 95 96 99 99 100 100 100 96 83 82 97 69 81 76 70 74 77 65 83 79 81 85 89 95 100 96 92 90 92 91 90 88 87 85 85 83 87 80 83 84 77 76 77

GFSNW_sfc_rhum_132.txt.gz
RH
89 91 90 90 91 95 88 94 99 96 86 98 96 92 64 58 47 32 25 27 29 40 43 50 50 42 34 29 34 47 42 81 86 42 27 26 35 44 48 83 59 52 83 94
90 93 95 94 95 84 94 99 99 97 82 94 97 68 68 56 49 29 30 36 36 43 99 95 97 50 35 34 35 45 47 84 62 52 43 32 36 43 40 58 85 84 93 93
89 87 93 95 90 81 92 99 99 100 99 98 69 79 72 66 38 34 39 41 59 67 98 80 100 72 44 38 37 63 57 56 64 95 76 49 51 45 46 50 80 86 91 94
84 87 89 92 93 91 97 96 88 78 97 99 78 61 73 50 46 35 31 56 62 74 93 75 79 55 48 42 58 48 54 79 81 54 51 57 80 66 71 77 87 92 92 82
86 85 88 90 93 90 97 99 70 59 62 73 80 77 77 46 40 40 42 52 50 55 66 64 80 63 48 52 49 53 57 74 96 100 65 59 87 93 99 62 68 73 72 87
85 84 88 91 92 93 97 74 40 48 67 67 84 87 60 54 47 37 35 38 43 45 31 32 36 37 40 41 54 67 65 67 73 77 84 65 90 91 88 62 56 58 70 77
88 89 91 92 91 92 98 94 83 72 84 69 69 58 48 52 46 50 38 39 42 38 36 37 38 37 42 44 49 56 63 58 59 73 79 92 95 58 54 60 62 59 68 69
87 88 88 92 88 86 98 97 94 93 96 68 80 61 64 66 49 54 47 32 33 38 43 54 54 56 53 47 40 42 42 56 71 69 76 82 77 56 59 63 70 57 66 65
86 88 88 90 84 82 91 68 69 71 87 94 65 73 69 78 64 51 60 42 42 42 45 55 50 61 44 48 42 38 41 44 68 66 70 78 67 46 41 43 72 54 59 67
86 89 89 88 85 82 79 82 76 86 76 58 53 57 66 46 49 62 58 56 53 52 57 66 51 47 26 55 54 58 60 58 72 68 60 78 47 45 45 76 85 52 53 59
88 89 89 84 82 76 70 77 82 76 79 61 42 42 49 42 45 64 55 56 47 60 54 47 44 58 40 46 35 54 52 64 68 58 61 91 48 55 74 71 55 50 52 54
82 82 83 81 79 80 74 86 82 62 62 70 58 57 50 41 43 45 51 40 46 38 46 40 41 59 61 41 72 37 56 47 72 75 83 70 68 74 56 48 52 52 56 59
82 83 81 78 77 77 76 63 55 53 62 53 50 57 47 40 45 52 51 43 42 43 58 52 58 52 38 63 52 49 50 40 70 73 75 68 72 57 50 46 50 47 47 50
84 85 80 78 78 78 79 62 49 48 47 77 62 41 47 38 37 44 50 53 48 48 49 52 52 59 44 52 51 54 48 44 69 80 70 65 63 65 58 52 47 46 45 46
88 82 80 76 74 76 61 55 51 51 45 68 64 48 41 38 41 42 44 50 54 50 52 63 54 44 44 43 45 48 40 61 78 83 70 66 72 68 61 62 54 46 46 45
87 83 70 71 74 76 54 98 51 51 39 56 75 46 46 40 39 42 43 42 42 38 38 46 48 50 62 68 56 45 43 41 47 68 58 65 69 64 58 60 51 45 44 40
86 79 79 77 73 65 59 73 66 73 54 63 76 64 47 39 39 41 43 39 43 38 43 42 42 47 51 75 60 50 45 50 50 50 57 67 57 60 48 45 42 43 38 37
84 82 78 78 76 74 58 59 70 77 46 39 74 78 61 44 54 60 45 46 44 50 46 43 42 49 49 60 49 44 45 47 51 52 48 53 48 45 45 41 42 42 43 41
84 80 80 70 65 57 51 79 77 60 52 65 82 75 86 50 52 51 52 46 81 47 64 50 43 55 65 45 37 41 45 50 52 45 45 47 50 47 44 44 42 44 47 46
77 61 82 100 72 76 76 59 68 72 55 49 71 59 84 54 55 61 67 69 69 71 60 49 68 69 51 33 30 34 42 41 45 52 57 54 54 51 49 47 46 46 47 45
55 93 94 67 72 57 65 99 86 69 67 54 64 58 79 52 74 73 61 74 67 68 68 67 70 65 61 38 34 36 39 39 41 42 46 46 48 53 55 53 51 48 48 49
64 71 69 64 63 81 91 80 62 52 60 60 75 67 59 75 63 63 73 74 78 71 61 78 71 74 44 41 40 42 42 42 43 41 45 49 46 52 54 54 53 52 51 68
67 73 95 90 86 89 81 83 60 84 79 73 78 89 72 71 71 96 78 94 88 64 84 71 75 61 46 46 44 48 46 49 46 45 47 50 54 52 56 57 59 68 81 86
69 88 82 96 92 73 73 69 82 84 81 80 82 80 78 83 92 100 92 87 73 79 78 64 78 73 68 63 62 55 68 78 70 68 70 79 84 88 86 87 84 87 92 92
83 76 80 83 89 93 94 95 84 76 76 80 82 77 74 90 97 84 78 86 75 66 69 87 90 82 71 74 89 97 95 93 95 93 91 92 90 91 94 91 89 91 92 93
72 76 87 90 95 98 100 100 99 90 85 78 68 74 91 85 80 75 77 58 60 79 92 87 83 86 92 98 100 100 100 100 99 94 91 92 93 92 92 91 92 92 90 90
76 94 98 100 100 100 100 99 90 78 86 97 70 90 70 67 66 66 57 89 92 91 92 95 92 97 95 95 99 100 100 99 95 95 91 91 89 90 89 92 92 87 86 89